Year,Month,Day,Hour,Minute,Value (Times are PST for temperature in C)
2017,05,21,00,00,16.70
2017,05,21,00,01,16.70
2017,05,21,00,02,16.70
2017,05,21,00,03,16.60
2017,05,21,00,04,16.60
2017,05,21,00,05,16.60
2017,05,21,00,06,16.60
2017,05,21,00,07,16.50
2017,05,21,00,08,16.50
2017,05,21,00,09,16.40
2017,05,21,00,10,16.40
2017,05,21,00,11,16.40
2017,05,21,00,12,16.30
2017,05,21,00,13,16.30
2017,05,21,00,14,16.30
2017,05,21,00,15,16.30
2017,05,21,00,16,16.20
2017,05,21,00,17,16.20
2017,05,21,00,18,16.20
2017,05,21,00,19,16.10
2017,05,21,00,20,16.10
2017,05,21,00,21,16.10
2017,05,21,00,22,16.10
2017,05,21,00,23,16.10
2017,05,21,00,24,16.00
2017,05,21,00,25,16.00
2017,05,21,00,26,16.00
2017,05,21,00,27,16.00
2017,05,21,00,28,16.00
2017,05,21,00,29,16.00
2017,05,21,00,30,15.90
2017,05,21,00,31,15.90
2017,05,21,00,32,15.90
2017,05,21,00,33,15.90
2017,05,21,00,34,15.80
2017,05,21,00,35,15.80
2017,05,21,00,36,15.70
2017,05,21,00,37,15.70
2017,05,21,00,38,15.60
2017,05,21,00,39,15.50
2017,05,21,00,40,15.40
2017,05,21,00,41,15.30
2017,05,21,00,42,15.20
2017,05,21,00,43,15.10
2017,05,21,00,44,15.00
2017,05,21,00,45,15.00
2017,05,21,00,46,14.90
2017,05,21,00,47,14.90
2017,05,21,00,48,14.90
2017,05,21,00,49,14.90
2017,05,21,00,50,14.90
2017,05,21,00,51,14.90
2017,05,21,00,52,14.80
2017,05,21,00,53,14.80
2017,05,21,00,54,14.90
2017,05,21,00,55,14.80
2017,05,21,00,56,14.90
2017,05,21,00,57,14.90
2017,05,21,00,58,14.90
2017,05,21,00,59,14.90
2017,05,21,01,00,14.90
2017,05,21,01,01,14.90
2017,05,21,01,02,14.90
2017,05,21,01,03,14.90
2017,05,21,01,04,14.90
2017,05,21,01,05,15.00
2017,05,21,01,06,15.00
2017,05,21,01,07,15.00
2017,05,21,01,08,15.00
2017,05,21,01,09,15.00
2017,05,21,01,10,15.10
2017,05,21,01,11,15.10
2017,05,21,01,12,15.10
2017,05,21,01,13,15.00
2017,05,21,01,14,15.00
2017,05,21,01,15,15.00
2017,05,21,01,16,15.10
2017,05,21,01,17,15.00
2017,05,21,01,18,15.00
2017,05,21,01,19,15.00
2017,05,21,01,20,15.00
2017,05,21,01,21,15.00
2017,05,21,01,22,15.10
2017,05,21,01,23,15.00
2017,05,21,01,24,15.10
2017,05,21,01,25,15.10
2017,05,21,01,26,15.00
2017,05,21,01,27,15.00
2017,05,21,01,28,15.00
2017,05,21,01,29,15.00
2017,05,21,01,30,15.00
2017,05,21,01,31,15.00
2017,05,21,01,32,15.00
2017,05,21,01,33,15.00
2017,05,21,01,34,15.00
2017,05,21,01,35,15.00
2017,05,21,01,36,15.00
2017,05,21,01,37,15.00
2017,05,21,01,38,15.00
2017,05,21,01,39,15.00
2017,05,21,01,40,15.00
2017,05,21,01,41,14.90
2017,05,21,01,42,14.90
2017,05,21,01,43,14.90
2017,05,21,01,44,14.90
2017,05,21,01,45,14.90
2017,05,21,01,46,14.90
2017,05,21,01,47,14.80
2017,05,21,01,48,14.80
2017,05,21,01,49,14.80
2017,05,21,01,50,14.80
2017,05,21,01,51,14.70
2017,05,21,01,52,14.60
2017,05,21,01,53,14.40
2017,05,21,01,54,14.30
2017,05,21,01,55,14.20
2017,05,21,01,56,14.10
2017,05,21,01,57,14.00
2017,05,21,01,58,13.90
2017,05,21,01,59,13.80
2017,05,21,02,00,13.80
2017,05,21,02,01,13.80
2017,05,21,02,02,13.70
2017,05,21,02,03,13.70
2017,05,21,02,04,13.70
2017,05,21,02,05,13.70
2017,05,21,02,06,13.70
2017,05,21,02,07,13.70
2017,05,21,02,08,13.70
2017,05,21,02,09,13.70
2017,05,21,02,10,13.70
2017,05,21,02,11,13.70
2017,05,21,02,12,13.70
2017,05,21,02,13,13.70
2017,05,21,02,14,13.80
2017,05,21,02,15,13.80
2017,05,21,02,16,13.80
2017,05,21,02,17,13.80
2017,05,21,02,18,13.80
2017,05,21,02,19,13.90
2017,05,21,02,20,13.90
2017,05,21,02,21,13.90
2017,05,21,02,22,13.90
2017,05,21,02,23,13.90
2017,05,21,02,24,13.90
2017,05,21,02,25,13.90
2017,05,21,02,26,13.90
2017,05,21,02,27,13.90
2017,05,21,02,28,14.00
2017,05,21,02,29,14.00
2017,05,21,02,30,14.00
2017,05,21,02,31,14.00
2017,05,21,02,32,14.00
2017,05,21,02,33,13.90
2017,05,21,02,34,13.90
2017,05,21,02,35,13.90
2017,05,21,02,36,13.90
2017,05,21,02,37,13.90
2017,05,21,02,38,13.90
2017,05,21,02,39,13.90
2017,05,21,02,40,13.90
2017,05,21,02,41,13.80
2017,05,21,02,42,13.80
2017,05,21,02,43,13.80
2017,05,21,02,44,13.80
2017,05,21,02,45,13.70
2017,05,21,02,46,13.70
2017,05,21,02,47,13.70
2017,05,21,02,48,13.60
2017,05,21,02,49,13.60
2017,05,21,02,50,13.60
2017,05,21,02,51,13.50
2017,05,21,02,52,13.50
2017,05,21,02,53,13.50
2017,05,21,02,54,13.50
2017,05,21,02,55,13.60
2017,05,21,02,56,13.60
2017,05,21,02,57,13.60
2017,05,21,02,58,13.60
2017,05,21,02,59,13.60
2017,05,21,03,00,13.50
2017,05,21,03,01,13.50
2017,05,21,03,02,13.50
2017,05,21,03,03,13.50
2017,05,21,03,04,13.50
2017,05,21,03,05,13.50
2017,05,21,03,06,13.50
2017,05,21,03,07,13.50
2017,05,21,03,08,13.60
2017,05,21,03,09,13.60
2017,05,21,03,10,13.60
2017,05,21,03,11,13.60
2017,05,21,03,12,13.60
2017,05,21,03,13,13.60
2017,05,21,03,14,13.60
2017,05,21,03,15,13.60
2017,05,21,03,16,13.60
2017,05,21,03,17,13.60
2017,05,21,03,18,13.60
2017,05,21,03,19,13.60
2017,05,21,03,20,13.60
2017,05,21,03,21,13.60
2017,05,21,03,22,13.70
2017,05,21,03,23,13.70
2017,05,21,03,24,13.70
2017,05,21,03,25,13.70
2017,05,21,03,26,13.70
2017,05,21,03,27,13.70
2017,05,21,03,28,13.70
2017,05,21,03,29,13.60
2017,05,21,03,30,13.60
2017,05,21,03,31,13.60
2017,05,21,03,32,13.60
2017,05,21,03,33,13.60
2017,05,21,03,34,13.60
2017,05,21,03,35,13.60
2017,05,21,03,36,13.60
2017,05,21,03,37,13.60
2017,05,21,03,38,13.60
2017,05,21,03,39,13.50
2017,05,21,03,40,13.50
2017,05,21,03,41,13.40
2017,05,21,03,42,13.40
2017,05,21,03,43,13.40
2017,05,21,03,44,13.40
2017,05,21,03,45,13.40
2017,05,21,03,46,13.40
2017,05,21,03,47,13.40
2017,05,21,03,48,13.40
2017,05,21,03,49,13.40
2017,05,21,03,50,13.40
2017,05,21,03,51,13.30
2017,05,21,03,52,13.30
2017,05,21,03,53,13.30
2017,05,21,03,54,13.20
2017,05,21,03,55,13.20
2017,05,21,03,56,13.10
2017,05,21,03,57,13.10
2017,05,21,03,58,13.10
2017,05,21,03,59,13.20
2017,05,21,04,00,13.20
2017,05,21,04,01,13.20
2017,05,21,04,02,13.20
2017,05,21,04,03,13.20
2017,05,21,04,04,13.20
2017,05,21,04,05,13.20
2017,05,21,04,06,13.20
2017,05,21,04,07,13.30
2017,05,21,04,08,13.30
2017,05,21,04,09,13.30
2017,05,21,04,10,13.30
2017,05,21,04,11,13.30
2017,05,21,04,12,13.30
2017,05,21,04,13,13.30
2017,05,21,04,14,13.30
2017,05,21,04,15,13.30
2017,05,21,04,16,13.30
2017,05,21,04,17,13.30
2017,05,21,04,18,13.30
2017,05,21,04,19,13.30
2017,05,21,04,20,13.30
2017,05,21,04,21,13.30
2017,05,21,04,22,13.30
2017,05,21,04,23,13.30
2017,05,21,04,24,13.30
2017,05,21,04,25,13.40
2017,05,21,04,26,13.40
2017,05,21,04,27,13.40
2017,05,21,04,28,13.50
2017,05,21,04,29,13.50
2017,05,21,04,30,13.60
2017,05,21,04,31,13.60
2017,05,21,04,32,13.70
2017,05,21,04,33,13.70
2017,05,21,04,34,13.70
2017,05,21,04,35,13.70
2017,05,21,04,36,13.70
2017,05,21,04,37,13.70
2017,05,21,04,38,13.70
2017,05,21,04,39,13.70
2017,05,21,04,40,13.70
2017,05,21,04,41,13.70
2017,05,21,04,42,13.70
2017,05,21,04,43,13.70
2017,05,21,04,44,13.70
2017,05,21,04,45,13.70
2017,05,21,04,46,13.70
2017,05,21,04,47,13.70
2017,05,21,04,48,13.70
2017,05,21,04,49,13.70
2017,05,21,04,50,13.70
2017,05,21,04,51,13.60
2017,05,21,04,52,13.60
2017,05,21,04,53,13.60
2017,05,21,04,54,13.60
2017,05,21,04,55,13.60
2017,05,21,04,56,13.60
2017,05,21,04,57,13.60
2017,05,21,04,58,13.60
2017,05,21,04,59,13.60
2017,05,21,05,00,13.60
2017,05,21,05,01,13.60
2017,05,21,05,02,13.60
2017,05,21,05,03,13.50
2017,05,21,05,04,13.50
2017,05,21,05,05,13.50
2017,05,21,05,06,13.50
2017,05,21,05,07,13.50
2017,05,21,05,08,13.50
2017,05,21,05,09,13.50
2017,05,21,05,10,13.40
2017,05,21,05,11,13.40
2017,05,21,05,12,13.40
2017,05,21,05,13,13.40
2017,05,21,05,14,13.40
2017,05,21,05,15,13.40
2017,05,21,05,16,13.40
2017,05,21,05,17,13.40
2017,05,21,05,18,13.40
2017,05,21,05,19,13.40
2017,05,21,05,20,13.30
2017,05,21,05,21,13.30
2017,05,21,05,22,13.30
2017,05,21,05,23,13.30
2017,05,21,05,24,13.30
2017,05,21,05,25,13.30
2017,05,21,05,26,13.30
2017,05,21,05,27,13.20
2017,05,21,05,28,13.20
2017,05,21,05,29,13.20
2017,05,21,05,30,13.20
2017,05,21,05,31,13.20
2017,05,21,05,32,13.20
2017,05,21,05,33,13.20
2017,05,21,05,34,13.20
2017,05,21,05,35,13.10
2017,05,21,05,36,13.10
2017,05,21,05,37,13.10
2017,05,21,05,38,13.10
2017,05,21,05,39,13.00
2017,05,21,05,40,13.00
2017,05,21,05,41,13.00
2017,05,21,05,42,12.90
2017,05,21,05,43,12.90
2017,05,21,05,44,12.80
2017,05,21,05,45,12.70
2017,05,21,05,46,12.70
2017,05,21,05,47,12.60
2017,05,21,05,48,12.60
2017,05,21,05,49,12.60
2017,05,21,05,50,12.60
2017,05,21,05,51,12.50
2017,05,21,05,52,12.50
2017,05,21,05,53,12.60
2017,05,21,05,54,12.60
2017,05,21,05,55,12.70
2017,05,21,05,56,12.70
2017,05,21,05,57,12.70
2017,05,21,05,58,12.70
2017,05,21,05,59,12.80
2017,05,21,06,00,12.80
2017,05,21,06,01,12.80
2017,05,21,06,02,12.80
2017,05,21,06,03,12.80
2017,05,21,06,04,12.80
2017,05,21,06,05,12.80
2017,05,21,06,06,12.80
2017,05,21,06,07,12.80
2017,05,21,06,08,12.80
2017,05,21,06,09,12.80
2017,05,21,06,10,12.80
2017,05,21,06,11,12.70
2017,05,21,06,12,12.70
2017,05,21,06,13,12.70
2017,05,21,06,14,12.70
2017,05,21,06,15,12.70
2017,05,21,06,16,12.70
2017,05,21,06,17,12.70
2017,05,21,06,18,12.70
2017,05,21,06,19,12.70
2017,05,21,06,20,12.70
2017,05,21,06,21,12.70
2017,05,21,06,22,12.80
2017,05,21,06,23,12.80
2017,05,21,06,24,12.80
2017,05,21,06,25,12.80
2017,05,21,06,26,12.80
2017,05,21,06,27,12.80
2017,05,21,06,28,12.80
2017,05,21,06,29,12.90
2017,05,21,06,30,12.90
2017,05,21,06,31,12.90
2017,05,21,06,32,12.90
2017,05,21,06,33,12.90
2017,05,21,06,34,12.90
2017,05,21,06,35,12.90
2017,05,21,06,36,12.90
2017,05,21,06,37,12.90
2017,05,21,06,38,12.90
2017,05,21,06,39,13.00
2017,05,21,06,40,13.00
2017,05,21,06,41,13.00
2017,05,21,06,42,13.10
2017,05,21,06,43,13.00
2017,05,21,06,44,13.10
2017,05,21,06,45,13.10
2017,05,21,06,46,13.10
2017,05,21,06,47,13.10
2017,05,21,06,48,13.10
2017,05,21,06,49,13.10
2017,05,21,06,50,13.10
2017,05,21,06,51,13.00
2017,05,21,06,52,13.00
2017,05,21,06,53,13.00
2017,05,21,06,54,13.00
2017,05,21,06,55,13.00
2017,05,21,06,56,13.00
2017,05,21,06,57,13.00
2017,05,21,06,58,13.00
2017,05,21,06,59,13.00
2017,05,21,07,00,13.00
2017,05,21,07,01,13.00
2017,05,21,07,02,13.00
2017,05,21,07,03,13.00
2017,05,21,07,04,12.90
2017,05,21,07,05,12.90
2017,05,21,07,06,12.90
2017,05,21,07,07,12.90
2017,05,21,07,08,12.80
2017,05,21,07,09,12.80
2017,05,21,07,10,12.80
2017,05,21,07,11,12.80
2017,05,21,07,12,12.80
2017,05,21,07,13,12.80
2017,05,21,07,14,12.80
2017,05,21,07,15,12.80
2017,05,21,07,16,12.90
2017,05,21,07,17,12.90
2017,05,21,07,18,12.90
2017,05,21,07,19,13.00
2017,05,21,07,20,13.10
2017,05,21,07,21,13.20
2017,05,21,07,22,13.20
2017,05,21,07,23,13.30
2017,05,21,07,24,13.30
2017,05,21,07,25,13.40
2017,05,21,07,26,13.40
2017,05,21,07,27,13.40
2017,05,21,07,28,13.30
2017,05,21,07,29,13.30
2017,05,21,07,30,13.20
2017,05,21,07,31,13.10
2017,05,21,07,32,13.10
2017,05,21,07,33,13.10
2017,05,21,07,34,13.10
2017,05,21,07,35,13.10
2017,05,21,07,36,13.10
2017,05,21,07,37,13.10
2017,05,21,07,38,13.10
2017,05,21,07,39,13.10
2017,05,21,07,40,13.10
2017,05,21,07,41,13.10
2017,05,21,07,42,13.20
2017,05,21,07,43,13.30
2017,05,21,07,44,13.30
2017,05,21,07,45,13.30
2017,05,21,07,46,13.30
2017,05,21,07,47,13.30
2017,05,21,07,48,13.40
2017,05,21,07,49,13.40
2017,05,21,07,50,13.40
2017,05,21,07,51,13.40
2017,05,21,07,52,13.40
2017,05,21,07,53,13.40
2017,05,21,07,54,13.50
2017,05,21,07,55,13.50
2017,05,21,07,56,13.50
2017,05,21,07,57,13.60
2017,05,21,07,58,13.60
2017,05,21,07,59,13.60
2017,05,21,08,00,13.60
2017,05,21,08,01,13.60
2017,05,21,08,02,13.60
2017,05,21,08,03,13.60
2017,05,21,08,04,13.60
2017,05,21,08,05,13.60
2017,05,21,08,06,13.70
2017,05,21,08,07,13.70
2017,05,21,08,08,13.70
2017,05,21,08,09,13.70
2017,05,21,08,10,13.80
2017,05,21,08,11,13.80
2017,05,21,08,12,13.80
2017,05,21,08,13,13.80
2017,05,21,08,14,13.90
2017,05,21,08,15,13.90
2017,05,21,08,16,14.00
2017,05,21,08,17,14.00
2017,05,21,08,18,14.10
2017,05,21,08,19,14.10
2017,05,21,08,20,14.20
2017,05,21,08,21,14.20
2017,05,21,08,22,14.30
2017,05,21,08,23,14.30
2017,05,21,08,24,14.30
2017,05,21,08,25,14.40
2017,05,21,08,26,14.50
2017,05,21,08,27,14.50
2017,05,21,08,28,14.60
2017,05,21,08,29,14.60
2017,05,21,08,30,14.60
2017,05,21,08,31,14.70
2017,05,21,08,32,14.70
2017,05,21,08,33,14.80
2017,05,21,08,34,14.80
2017,05,21,08,35,14.80
2017,05,21,08,36,14.90
2017,05,21,08,37,14.90
2017,05,21,08,38,14.90
2017,05,21,08,39,14.80
2017,05,21,08,40,14.80
2017,05,21,08,41,14.70
2017,05,21,08,42,14.70
2017,05,21,08,43,14.60
2017,05,21,08,44,14.60
2017,05,21,08,45,14.60
2017,05,21,08,46,14.60
2017,05,21,08,47,14.60
2017,05,21,08,48,14.60
2017,05,21,08,49,14.60
2017,05,21,08,50,14.70
2017,05,21,08,51,14.70
2017,05,21,08,52,14.70
2017,05,21,08,53,14.80
2017,05,21,08,54,14.80
2017,05,21,08,55,14.80
2017,05,21,08,56,14.90
2017,05,21,08,57,15.00
2017,05,21,08,58,15.10
2017,05,21,08,59,15.20
2017,05,21,09,00,15.30
2017,05,21,09,01,15.30
2017,05,21,09,02,15.30
2017,05,21,09,03,15.30
2017,05,21,09,04,15.20
2017,05,21,09,05,15.20
2017,05,21,09,06,15.20
2017,05,21,09,07,15.30
2017,05,21,09,08,15.30
2017,05,21,09,09,15.30
2017,05,21,09,10,15.30
2017,05,21,09,11,15.30
2017,05,21,09,12,15.30
2017,05,21,09,13,15.40
2017,05,21,09,14,15.40
2017,05,21,09,15,15.50
2017,05,21,09,16,15.50
2017,05,21,09,17,15.40
2017,05,21,09,18,15.40
2017,05,21,09,19,15.40
2017,05,21,09,20,15.40
2017,05,21,09,21,15.40
2017,05,21,09,22,15.40
2017,05,21,09,23,15.50
2017,05,21,09,24,15.60
2017,05,21,09,25,15.60
2017,05,21,09,26,15.60
2017,05,21,09,27,15.60
2017,05,21,09,28,15.60
2017,05,21,09,29,15.70
2017,05,21,09,30,15.70
2017,05,21,09,31,15.80
2017,05,21,09,32,15.90
2017,05,21,09,33,15.90
2017,05,21,09,34,16.00
2017,05,21,09,35,16.00
2017,05,21,09,36,16.00
2017,05,21,09,37,16.00
2017,05,21,09,38,16.00
2017,05,21,09,39,15.90
2017,05,21,09,40,15.90
2017,05,21,09,41,15.80
2017,05,21,09,42,15.80
2017,05,21,09,43,15.80
2017,05,21,09,44,15.90
2017,05,21,09,45,16.00
2017,05,21,09,46,16.10
2017,05,21,09,47,16.20
2017,05,21,09,48,16.30
2017,05,21,09,49,16.30
2017,05,21,09,50,16.30
2017,05,21,09,51,16.30
2017,05,21,09,52,16.40
2017,05,21,09,53,16.40
2017,05,21,09,54,16.50
2017,05,21,09,55,16.50
2017,05,21,09,56,16.50
2017,05,21,09,57,16.60
2017,05,21,09,58,16.60
2017,05,21,09,59,16.70
2017,05,21,10,00,16.70
2017,05,21,10,01,16.70
2017,05,21,10,02,16.70
2017,05,21,10,03,16.70
2017,05,21,10,04,16.80
2017,05,21,10,05,16.90
2017,05,21,10,06,17.00
2017,05,21,10,07,17.10
2017,05,21,10,08,17.10
2017,05,21,10,09,17.10
2017,05,21,10,10,17.00
2017,05,21,10,11,17.00
2017,05,21,10,12,17.10
2017,05,21,10,13,17.20
2017,05,21,10,14,17.10
2017,05,21,10,15,17.00
2017,05,21,10,16,16.90
2017,05,21,10,17,16.80
2017,05,21,10,18,16.90
2017,05,21,10,19,16.80
2017,05,21,10,20,16.80
2017,05,21,10,21,16.70
2017,05,21,10,22,16.70
2017,05,21,10,23,16.60
2017,05,21,10,24,16.60
2017,05,21,10,25,16.50
2017,05,21,10,26,16.50
2017,05,21,10,27,16.50
2017,05,21,10,28,16.60
2017,05,21,10,29,16.60
2017,05,21,10,30,16.80
2017,05,21,10,31,16.90
2017,05,21,10,32,16.90
2017,05,21,10,33,16.90
2017,05,21,10,34,16.90
2017,05,21,10,35,16.90
2017,05,21,10,36,16.90
2017,05,21,10,37,16.80
2017,05,21,10,38,16.80
2017,05,21,10,39,16.70
2017,05,21,10,40,16.70
2017,05,21,10,41,16.80
2017,05,21,10,42,16.80
2017,05,21,10,43,16.80
2017,05,21,10,44,16.90
2017,05,21,10,45,17.00
2017,05,21,10,46,17.10
2017,05,21,10,47,17.20
2017,05,21,10,48,17.30
2017,05,21,10,49,17.40
2017,05,21,10,50,17.50
2017,05,21,10,51,17.60
2017,05,21,10,52,17.50
2017,05,21,10,53,17.50
2017,05,21,10,54,17.40
2017,05,21,10,55,17.40
2017,05,21,10,56,17.40
2017,05,21,10,57,17.50
2017,05,21,10,58,17.60
2017,05,21,10,59,17.50
2017,05,21,11,00,17.50
2017,05,21,11,01,17.50
2017,05,21,11,02,17.50
2017,05,21,11,03,17.50
2017,05,21,11,04,17.70
2017,05,21,11,05,17.70
2017,05,21,11,06,17.70
2017,05,21,11,07,17.70
2017,05,21,11,08,17.70
2017,05,21,11,09,17.70
2017,05,21,11,10,17.70
2017,05,21,11,11,17.70
2017,05,21,11,12,17.70
2017,05,21,11,13,17.60
2017,05,21,11,14,17.70
2017,05,21,11,15,17.70
2017,05,21,11,16,17.70
2017,05,21,11,17,17.60
2017,05,21,11,18,17.70
2017,05,21,11,19,17.80
2017,05,21,11,20,17.80
2017,05,21,11,21,17.80
2017,05,21,11,22,17.80
2017,05,21,11,23,17.80
2017,05,21,11,24,17.80
2017,05,21,11,25,17.80
2017,05,21,11,26,17.90
2017,05,21,11,27,18.00
2017,05,21,11,28,18.10
2017,05,21,11,29,18.10
2017,05,21,11,30,18.20
2017,05,21,11,31,18.20
2017,05,21,11,32,18.20
2017,05,21,11,33,18.10
2017,05,21,11,34,18.10
2017,05,21,11,35,18.10
2017,05,21,11,36,18.10
2017,05,21,11,37,18.10
2017,05,21,11,38,18.10
2017,05,21,11,39,18.10
2017,05,21,11,40,18.20
2017,05,21,11,41,18.30
2017,05,21,11,42,18.30
2017,05,21,11,43,18.40
2017,05,21,11,44,18.40
2017,05,21,11,45,18.50
2017,05,21,11,46,18.50
2017,05,21,11,47,18.50
2017,05,21,11,48,18.40
2017,05,21,11,49,18.30
2017,05,21,11,50,18.30
2017,05,21,11,51,18.20
2017,05,21,11,52,18.20
2017,05,21,11,53,18.20
2017,05,21,11,54,18.20
2017,05,21,11,55,18.20
2017,05,21,11,56,18.30
2017,05,21,11,57,18.40
2017,05,21,11,58,18.40
2017,05,21,11,59,18.50
2017,05,21,12,00,18.50
2017,05,21,12,01,18.50
2017,05,21,12,02,18.50
2017,05,21,12,03,18.40
2017,05,21,12,04,18.40
2017,05,21,12,05,18.40
2017,05,21,12,06,18.50
2017,05,21,12,07,18.50
2017,05,21,12,08,18.60
2017,05,21,12,09,18.70
2017,05,21,12,10,18.70
2017,05,21,12,11,18.70
2017,05,21,12,12,18.70
2017,05,21,12,13,18.70
2017,05,21,12,14,18.70
2017,05,21,12,15,18.60
2017,05,21,12,16,18.60
2017,05,21,12,17,18.70
2017,05,21,12,18,18.70
2017,05,21,12,19,18.70
2017,05,21,12,20,18.80
2017,05,21,12,21,18.80
2017,05,21,12,22,18.80
2017,05,21,12,23,18.90
2017,05,21,12,24,18.90
2017,05,21,12,25,18.80
2017,05,21,12,26,18.90
2017,05,21,12,27,18.90
2017,05,21,12,28,18.90
2017,05,21,12,29,18.90
2017,05,21,12,30,19.00
2017,05,21,12,31,19.00
2017,05,21,12,32,19.20
2017,05,21,12,33,19.30
2017,05,21,12,34,19.50
2017,05,21,12,35,19.50
2017,05,21,12,36,19.60
2017,05,21,12,37,19.70
2017,05,21,12,38,19.80
2017,05,21,12,39,19.70
2017,05,21,12,40,19.60
2017,05,21,12,41,19.50
2017,05,21,12,42,19.50
2017,05,21,12,43,19.40
2017,05,21,12,44,19.40
2017,05,21,12,45,19.40
2017,05,21,12,46,19.40
2017,05,21,12,47,19.50
2017,05,21,12,48,19.60
2017,05,21,12,49,19.70
2017,05,21,12,50,19.70
2017,05,21,12,51,19.70
2017,05,21,12,52,19.80
2017,05,21,12,53,19.80
2017,05,21,12,54,19.70
2017,05,21,12,55,19.70
2017,05,21,12,56,19.80
2017,05,21,12,57,19.80
2017,05,21,12,58,19.80
2017,05,21,12,59,19.80
2017,05,21,13,00,19.80
2017,05,21,13,01,19.90
2017,05,21,13,02,19.90
2017,05,21,13,03,19.90
2017,05,21,13,04,19.80
2017,05,21,13,05,19.80
2017,05,21,13,06,19.90
2017,05,21,13,07,19.90
2017,05,21,13,08,20.00
2017,05,21,13,09,20.10
2017,05,21,13,10,20.20
2017,05,21,13,11,20.30
2017,05,21,13,12,20.40
2017,05,21,13,13,20.50
2017,05,21,13,14,20.50
2017,05,21,13,15,20.50
2017,05,21,13,16,20.50
2017,05,21,13,17,20.50
2017,05,21,13,18,20.50
2017,05,21,13,19,20.60
2017,05,21,13,20,20.60
2017,05,21,13,21,20.60
2017,05,21,13,22,20.60
2017,05,21,13,23,20.60
2017,05,21,13,24,20.50
2017,05,21,13,25,20.40
2017,05,21,13,26,20.40
2017,05,21,13,27,20.30
2017,05,21,13,28,20.30
2017,05,21,13,29,20.30
2017,05,21,13,30,20.40
2017,05,21,13,31,20.50
2017,05,21,13,32,20.60
2017,05,21,13,33,20.60
2017,05,21,13,34,20.60
2017,05,21,13,35,20.60
2017,05,21,13,36,20.60
2017,05,21,13,37,20.60
2017,05,21,13,38,20.70
2017,05,21,13,39,20.80
2017,05,21,13,40,20.70
2017,05,21,13,41,20.60
2017,05,21,13,42,20.50
2017,05,21,13,43,20.50
2017,05,21,13,44,20.50
2017,05,21,13,45,20.60
2017,05,21,13,46,20.70
2017,05,21,13,47,20.70
2017,05,21,13,48,20.70
2017,05,21,13,49,20.60
2017,05,21,13,50,20.50
2017,05,21,13,51,20.50
2017,05,21,13,52,20.40
2017,05,21,13,53,20.40
2017,05,21,13,54,20.40
2017,05,21,13,55,20.40
2017,05,21,13,56,20.50
2017,05,21,13,57,20.50
2017,05,21,13,58,20.50
2017,05,21,13,59,20.40
2017,05,21,14,00,20.40
2017,05,21,14,01,20.40
2017,05,21,14,02,20.30
2017,05,21,14,03,20.30
2017,05,21,14,04,20.30
2017,05,21,14,05,20.30
2017,05,21,14,06,20.30
2017,05,21,14,07,20.30
2017,05,21,14,08,20.40
2017,05,21,14,09,20.40
2017,05,21,14,10,20.50
2017,05,21,14,11,20.50
2017,05,21,14,12,20.60
2017,05,21,14,13,20.60
2017,05,21,14,14,20.60
2017,05,21,14,15,20.70
2017,05,21,14,16,20.80
2017,05,21,14,17,20.90
2017,05,21,14,18,20.90
2017,05,21,14,19,21.00
2017,05,21,14,20,21.10
2017,05,21,14,21,21.10
2017,05,21,14,22,21.10
2017,05,21,14,23,21.10
2017,05,21,14,24,21.00
2017,05,21,14,25,21.00
2017,05,21,14,26,21.10
2017,05,21,14,27,21.10
2017,05,21,14,28,21.20
2017,05,21,14,29,21.20
2017,05,21,14,30,21.20
2017,05,21,14,31,21.20
2017,05,21,14,32,21.30
2017,05,21,14,33,21.40
2017,05,21,14,34,21.50
2017,05,21,14,35,21.40
2017,05,21,14,36,21.40
2017,05,21,14,37,21.50
2017,05,21,14,38,21.50
2017,05,21,14,39,21.40
2017,05,21,14,40,21.40
2017,05,21,14,41,21.40
2017,05,21,14,42,21.40
2017,05,21,14,43,21.40
2017,05,21,14,44,21.40
2017,05,21,14,45,21.40
2017,05,21,14,46,21.50
2017,05,21,14,47,21.70
2017,05,21,14,48,21.80
2017,05,21,14,49,21.90
2017,05,21,14,50,21.90
2017,05,21,14,51,21.90
2017,05,21,14,52,21.80
2017,05,21,14,53,21.80
2017,05,21,14,54,21.80
2017,05,21,14,55,21.80
2017,05,21,14,56,21.80
2017,05,21,14,57,21.80
2017,05,21,14,58,21.80
2017,05,21,14,59,21.80
2017,05,21,15,00,21.80
2017,05,21,15,01,21.80
2017,05,21,15,02,21.90
2017,05,21,15,03,22.00
2017,05,21,15,04,22.00
2017,05,21,15,05,22.10
2017,05,21,15,06,22.10
2017,05,21,15,07,22.10
2017,05,21,15,08,22.10
2017,05,21,15,09,22.10
2017,05,21,15,10,22.10
2017,05,21,15,11,22.10
2017,05,21,15,12,22.00
2017,05,21,15,13,22.00
2017,05,21,15,14,22.10
2017,05,21,15,15,22.10
2017,05,21,15,16,22.10
2017,05,21,15,17,22.10
2017,05,21,15,18,22.20
2017,05,21,15,19,22.20
2017,05,21,15,20,22.20
2017,05,21,15,21,22.30
2017,05,21,15,22,22.30
2017,05,21,15,23,22.40
2017,05,21,15,24,22.40
2017,05,21,15,25,22.50
2017,05,21,15,26,22.50
2017,05,21,15,27,22.50
2017,05,21,15,28,22.50
2017,05,21,15,29,22.50
2017,05,21,15,30,22.50
2017,05,21,15,31,22.50
2017,05,21,15,32,22.50
2017,05,21,15,33,22.40
2017,05,21,15,34,22.40
2017,05,21,15,35,22.40
2017,05,21,15,36,22.50
2017,05,21,15,37,22.50
2017,05,21,15,38,22.50
2017,05,21,15,39,22.60
2017,05,21,15,40,22.60
2017,05,21,15,41,22.60
2017,05,21,15,42,22.70
2017,05,21,15,43,22.80
2017,05,21,15,44,22.90
2017,05,21,15,45,23.00
2017,05,21,15,46,23.10
2017,05,21,15,47,23.10
2017,05,21,15,48,23.10
2017,05,21,15,49,23.10
2017,05,21,15,50,23.10
2017,05,21,15,51,23.20
2017,05,21,15,52,23.20
2017,05,21,15,53,23.20
2017,05,21,15,54,23.30
2017,05,21,15,55,23.30
2017,05,21,15,56,23.30
2017,05,21,15,57,23.30
2017,05,21,15,58,23.30
2017,05,21,15,59,23.30
2017,05,21,16,00,23.20
2017,05,21,16,01,23.20
2017,05,21,16,02,23.20
2017,05,21,16,03,23.10
2017,05,21,16,04,23.10
2017,05,21,16,05,23.10
2017,05,21,16,06,23.10
2017,05,21,16,07,23.10
2017,05,21,16,08,23.10
2017,05,21,16,09,23.00
2017,05,21,16,10,23.10
2017,05,21,16,11,23.10
2017,05,21,16,12,23.20
2017,05,21,16,13,23.20
2017,05,21,16,14,23.20
2017,05,21,16,15,23.20
2017,05,21,16,16,23.20
2017,05,21,16,17,23.20
2017,05,21,16,18,23.20
2017,05,21,16,19,23.30
2017,05,21,16,20,23.30
2017,05,21,16,21,23.20
2017,05,21,16,22,23.30
2017,05,21,16,23,23.30
2017,05,21,16,24,23.40
2017,05,21,16,25,23.50
2017,05,21,16,26,23.60
2017,05,21,16,27,23.60
2017,05,21,16,28,23.60
2017,05,21,16,29,23.50
2017,05,21,16,30,23.40
2017,05,21,16,31,23.30
2017,05,21,16,32,23.30
2017,05,21,16,33,23.40
2017,05,21,16,34,23.40
2017,05,21,16,35,23.40
2017,05,21,16,36,23.40
2017,05,21,16,37,23.40
2017,05,21,16,38,23.50
2017,05,21,16,39,23.60
2017,05,21,16,40,23.60
2017,05,21,16,41,23.70
2017,05,21,16,42,23.80
2017,05,21,16,43,23.90
2017,05,21,16,44,24.00
2017,05,21,16,45,24.10
2017,05,21,16,46,24.10
2017,05,21,16,47,24.20
2017,05,21,16,48,24.20
2017,05,21,16,49,24.20
2017,05,21,16,50,24.20
2017,05,21,16,51,24.20
2017,05,21,16,52,24.20
2017,05,21,16,53,24.10
2017,05,21,16,54,24.10
2017,05,21,16,55,24.00
2017,05,21,16,56,23.90
2017,05,21,16,57,23.80
2017,05,21,16,58,23.70
2017,05,21,16,59,23.60
2017,05,21,17,00,23.60
2017,05,21,17,01,23.60
2017,05,21,17,02,23.60
2017,05,21,17,03,23.60
2017,05,21,17,04,23.60
2017,05,21,17,05,23.50
2017,05,21,17,06,23.50
2017,05,21,17,07,23.50
2017,05,21,17,08,23.50
2017,05,21,17,09,23.60
2017,05,21,17,10,23.60
2017,05,21,17,11,23.70
2017,05,21,17,12,23.80
2017,05,21,17,13,23.90
2017,05,21,17,14,24.00
2017,05,21,17,15,24.10
2017,05,21,17,16,24.10
2017,05,21,17,17,24.10
2017,05,21,17,18,24.10
2017,05,21,17,19,24.10